Location: Arborea
(39.7744°N, 8.5819°E)
Time: 17:17:27
(UTC+00:00)

Cosmos 332 Rocket - Pass Details

Date: 05 June 2022
Orbit: 681 x 703 km, 74.0° (Epoch: 29 June)

Event Time Altitude Azimuth Distance (km) Brightness Sun altitude
Exits shadow 23:32:46 21° 282° (WNW) 1,497 5.6 -27.6°
Maximum altitude 23:33:43 23° 299° (WNW) 1,447 5.6 -27.6°
Drops below altitude 10° 23:37:30 10° 351° (N) 2,131 7.2 -27.5°
Sets 23:40:15 0° 6° (N) 3,053 8.4 -27.5°
